User: anonymous   Login
Location: Poughquag
(41.6090°N, 73.6820°W)
Time: 07:38:04
(UTC-04:00)
Language:

Courier 1B Rocket - Orbit

View from above orbital plane
View from above orbital plane
View from above satellite
View from above satellite

Ground track
Ground track

The orbit data is extracted from the following two-line orbital elements,

1    59U 60013B   20149.84362831 +.00000106 +00000-0 +24716-4 0  9996
2    59 028.2491 318.9361 0189095 121.5879 240.3271 13.52975956943948
Epoch (UTC): 28 May 2020 20:14:49
Eccentricity: 0.0189095
inclination: 28.2491°
perigee height: 920 km
apogee height: 1202 km
right ascension of ascending node: 318.9361°
argument of perigee: 121.5879°
revolutions per day: 13.52975956
mean anomaly at epoch: 240.3271°
orbit number at epoch: 94394

The dashed part of the orbit path shows where the satellite is in the earth's shadow,  

DLR